Location: Fauquembergues
(50.6005°N, 2.0987°E)
Time: 08:16:22
(UTC+00:00)

Cosmos 1238 Rocket - Pass Details

Date: 14 July 2020
Orbit: 374 x 1030 km, 82.9° (Epoch: 14 August)

Event Time Altitude Azimuth Distance (km) Brightness Sun altitude
Exits shadow 00:50:00 29° 197° (SSW) 1,387 4.2 -16.8°
Maximum altitude 00:52:43 78° 279° (W) 735 3.3 -16.7°
Drops below altitude 10° 00:57:11 10° 7° (N) 2,001 7.0 -16.6°
Sets 00:59:13 0° 9° (N) 2,812 8.2 -16.5°
